Location: Koslow
(50.3020°N, 18.5663°E)
Time: 06:58:49
(UTC+00:00)

STARLINK-1357 - Pass Details

Date: 05 October 2020
Orbit: 548 x 551 km, 53.0° (Epoch: 31 October)

Event Time Altitude Azimuth Distance (km) Brightness Sun altitude
Exits shadow 02:21:23 58° 11° (N) 649 4.0 -24.4°
Drops below altitude 10° 02:25:17 10° 77° (ENE) 1,831 7.3 -23.9°
Sets 02:27:34 0° 81° (E) 2,726 8.5 -23.5°
